Tracking 29892 objects as of 21-Nov-2024
HD Live streaming from Space Station
objects crossing your sky now

COSMOS 764

Track COSMOS 764 now!
10-day predictions
COSMOS 764 is classified as:


NORAD ID: 8288
Int'l Code: 1975-086D
Perigee: 1,485.7 km
Apogee: 1,532.7 km
Inclination: 74.0 °
Period: 116.0 minutes
Semi major axis: 7880 km
RCS: 0.7209 m2 (medium)
Launch date: September 17, 1975
Source: Commonwealth of Independent States (former USSR) (CIS)
Launch site: PLESETSK MISSILE AND SPACE COMPLEX (PKMTR)
Your satellite tracking list
Your tracking list is empty




NASA's NSSDC Master Catalog

Two Line Element Set (TLE):
1 08288U 75086D   24325.11388719 -.00000003  00000-0  90064-4 0  9993
2 08288  74.0119  13.3583 0029843  19.9988   6.9128 12.41079219228029
Source of the keplerian elements: AFSPC